timestamp,wind_dir_avg,wind_spd_avg,wind_spd_max_dir,wind_spd_gust,battery_voltage,lat,long
2024-01-01 00:04:00+00:00,301.0,8.75,307.0,10.36,12.33,47.59359,-54.27349
2024-01-01 00:14:00+00:00,303.0,9.55,308.0,12.09,12.33,47.59359,-54.27349
2024-01-01 00:24:00+00:00,300.0,9.35,303.0,10.77,12.33,47.59359,-54.27349
2024-01-01 00:34:00+00:00,297.0,10.13,295.0,12.13,12.33,47.59359,-54.27349
2024-01-01 00:44:00+00:00,302.0,9.7,301.0,11.24,12.33,47.59359,-54.27349
2024-01-01 00:54:00+00:00,297.0,9.07,293.0,11.13,12.33,47.59359,-54.27349
2024-01-01 01:04:00+00:00,299.0,9.1,304.0,10.35,12.33,47.59359,-54.27349
2024-01-01 01:14:00+00:00,292.0,9.27,298.0,11.13,12.33,47.59359,-54.27349
2024-01-01 01:24:00+00:00,291.0,10.47,292.0,12.35,12.33,47.59359,-54.27349
2024-01-01 01:34:00+00:00,294.0,9.41,295.0,10.79,12.33,47.59359,-54.27349
2024-01-01 01:44:00+00:00,299.0,9.69,294.0,12.05,12.33,47.59359,-54.27349
2024-01-01 01:54:00+00:00,296.0,9.49,287.0,11.84,12.33,47.59359,-54.27349
2024-01-01 02:04:00+00:00,301.0,9.85,307.0,11.83,12.33,47.59359,-54.27349
2024-01-01 02:14:00+00:00,304.0,10.08,305.0,11.77,12.25,47.59359,-54.27349
2024-01-01 02:24:00+00:00,301.0,10.19,305.0,11.62,12.25,47.59359,-54.27349
2024-01-01 02:34:00+00:00,305.0,9.75,303.0,11.39,12.25,47.59359,-54.27349
2024-01-01 02:44:00+00:00,302.0,9.53,302.0,10.84,12.25,47.59359,-54.27349
2024-01-01 02:54:00+00:00,299.0,9.45,302.0,10.99,12.25,47.59359,-54.27349
2024-01-01 03:04:00+00:00,303.0,10.12,299.0,12.02,12.25,47.59359,-54.27349
2024-01-01 03:14:00+00:00,297.0,9.63,295.0,12.63,12.25,47.59359,-54.27349
2024-01-01 03:24:00+00:00,288.0,8.54,286.0,10.45,12.25,47.59359,-54.27349
2024-01-01 03:34:00+00:00,298.0,9.15,298.0,10.97,12.25,47.59359,-54.27349
2024-01-01 03:44:00+00:00,304.0,8.62,301.0,11.25,12.25,47.59359,-54.27349
2024-01-01 03:54:00+00:00,303.0,7.15,290.0,10.52,12.25,47.59359,-54.27349
2024-01-01 04:04:00+00:00,297.0,9.7,298.0,11.27,12.25,47.59359,-54.27349
2024-01-01 04:14:00+00:00,302.0,10.33,303.0,12.53,12.25,47.59359,-54.27349
2024-01-01 04:24:00+00:00,299.0,9.76,300.0,11.73,12.25,47.59359,-54.27349
2024-01-01 04:34:00+00:00,303.0,10.14,300.0,12.01,12.25,47.59359,-54.27349
2024-01-01 04:44:00+00:00,305.0,10.16,306.0,12.09,12.25,47.59359,-54.27349
2024-01-01 04:54:00+00:00,305.0,10.18,306.0,12.45,12.25,47.59359,-54.27349
2024-01-01 05:04:00+00:00,306.0,10.57,310.0,12.13,12.25,47.59359,-54.27349
2024-01-01 05:14:00+00:00,299.0,9.71,294.0,11.18,12.25,47.59359,-54.27349
2024-01-01 05:24:00+00:00,289.0,9.2,297.0,10.45,12.25,47.59359,-54.27349
2024-01-01 05:34:00+00:00,303.0,9.77,307.0,11.24,12.25,47.59359,-54.27349
2024-01-01 05:44:00+00:00,291.0,9.24,290.0,10.29,12.25,47.59359,-54.27349
2024-01-01 05:54:00+00:00,293.0,10.01,300.0,12.31,12.25,47.59359,-54.27349
2024-01-01 06:04:00+00:00,298.0,9.91,298.0,10.96,12.25,47.59359,-54.27349
2024-01-01 06:14:00+00:00,299.0,10.7,299.0,12.46,12.17,47.59359,-54.27349
2024-01-01 06:24:00+00:00,304.0,10.73,309.0,12.49,12.17,47.59359,-54.27349
2024-01-01 06:34:00+00:00,304.0,10.41,301.0,11.86,12.17,47.59359,-54.27349
2024-01-01 06:44:00+00:00,305.0,10.33,312.0,11.69,12.17,47.59359,-54.27349
2024-01-01 06:54:00+00:00,293.0,8.73,298.0,10.57,12.17,47.59359,-54.27349
2024-01-01 07:04:00+00:00,293.0,9.08,292.0,10.94,12.17,47.59359,-54.27349
2024-01-01 07:14:00+00:00,296.0,9.09,295.0,9.97,12.17,47.59359,-54.27349
2024-01-01 07:24:00+00:00,293.0,9.6,294.0,11.31,12.17,47.59359,-54.27349
2024-01-01 07:34:00+00:00,294.0,9.37,297.0,10.91,12.17,47.59359,-54.27349
2024-01-01 07:44:00+00:00,290.0,9.32,290.0,10.58,12.17,47.59359,-54.27349
2024-01-01 07:54:00+00:00,296.0,8.98,294.0,11.14,12.17,47.59359,-54.27349
2024-01-01 08:04:00+00:00,300.0,10.17,300.0,11.52,12.17,47.59359,-54.27349
2024-01-01 08:14:00+00:00,301.0,9.69,307.0,11.41,12.17,47.59359,-54.27349
2024-01-01 08:24:00+00:00,298.0,9.85,303.0,12.15,12.17,47.59359,-54.27349
2024-01-01 08:34:00+00:00,302.0,9.55,302.0,10.77,12.17,47.59359,-54.27349
2024-01-01 08:44:00+00:00,305.0,9.98,310.0,11.62,12.17,47.59359,-54.27349
2024-01-01 08:54:00+00:00,303.0,10.44,299.0,12.27,12.17,47.59359,-54.27349
2024-01-01 09:04:00+00:00,305.0,10.49,308.0,12.2,12.17,47.59359,-54.27349
2024-01-01 09:14:00+00:00,304.0,10.51,302.0,12.09,12.17,47.59359,-54.27349
2024-01-01 09:24:00+00:00,299.0,10.31,300.0,12.11,12.17,47.59359,-54.27349
2024-01-01 09:34:00+00:00,305.0,10.86,308.0,12.07,12.17,47.59359,-54.27349
2024-01-01 09:44:00+00:00,312.0,11.54,309.0,13.14,12.17,47.59359,-54.27349
2024-01-01 09:54:00+00:00,301.0,10.12,300.0,11.58,12.17,47.59359,-54.27349
2024-01-01 10:04:00+00:00,303.0,9.48,300.0,11.97,12.17,47.59359,-54.27349
2024-01-01 10:14:00+00:00,303.0,10.03,300.0,11.42,12.09,47.59359,-54.27349
2024-01-01 10:24:00+00:00,313.0,7.87,312.0,11.45,12.09,47.59359,-54.27349
2024-01-01 10:34:00+00:00,325.0,7.79,330.0,9.76,12.09,47.59359,-54.27349
2024-01-01 10:44:00+00:00,312.0,6.68,304.0,9.08,12.09,47.59359,-54.27349
2024-01-01 10:54:00+00:00,310.0,6.11,289.0,8.32,12.09,47.59359,-54.27349
2024-01-01 11:04:00+00:00,307.0,5.43,310.0,7.49,12.09,47.59359,-54.27349
2024-01-01 11:14:01+00:00,310.0,6.68,306.0,7.67,12.09,47.59359,-54.27349
2024-01-01 11:24:01+00:00,321.0,7.42,329.0,9.27,12.09,47.59359,-54.27349
2024-01-01 11:34:01+00:00,312.0,6.39,303.0,8.32,12.09,47.59359,-54.27349
2024-01-01 11:44:01+00:00,321.0,6.67,326.0,7.71,12.09,47.59359,-54.27349
2024-01-01 11:54:01+00:00,316.0,6.56,314.0,7.67,12.09,47.59359,-54.27349
2024-01-01 12:04:01+00:00,318.0,6.33,320.0,7.29,12.09,47.59359,-54.27349
2024-01-01 12:14:00+00:00,312.0,5.95,319.0,7.88,12.09,47.59359,-54.27349
2024-01-01 12:24:00+00:00,317.0,6.58,325.0,7.74,12.09,47.59359,-54.27349
2024-01-01 12:34:00+00:00,298.0,5.5,322.0,7.39,12.09,47.59359,-54.27349
2024-01-01 12:44:00+00:00,304.0,4.44,307.0,5.67,12.09,47.59359,-54.27349
2024-01-01 12:54:00+00:00,300.0,5.02,305.0,6.14,12.09,47.59359,-54.27349
2024-01-01 13:04:00+00:00,299.0,6.36,295.0,8.83,12.09,47.59359,-54.27349
2024-01-01 13:14:00+00:00,323.0,6.51,321.0,7.75,12.57,47.59359,-54.27349
2024-01-01 13:24:00+00:00,310.0,4.36,316.0,5.87,12.57,47.59359,-54.27349
2024-01-01 13:34:00+00:00,324.0,5.39,329.0,6.27,12.57,47.59359,-54.27349
2024-01-01 13:44:00+00:00,298.0,6.29,296.0,7.38,12.57,47.59359,-54.27349
2024-01-01 13:54:00+00:00,298.0,6.08,304.0,6.84,12.57,47.59359,-54.27349
2024-01-01 14:04:00+00:00,303.0,6.33,304.0,8.7,12.57,47.59359,-54.27349
2024-01-01 14:14:00+00:00,309.0,4.86,309.0,5.26,12.89,47.59359,-54.27349
2024-01-01 14:24:00+00:00,308.0,5.51,314.0,6.84,12.89,47.59359,-54.27349
2024-01-01 14:34:00+00:00,308.0,3.86,311.0,4.82,12.89,47.59359,-54.27349
2024-01-01 14:44:00+00:00,285.0,5.95,283.0,6.75,12.89,47.59359,-54.27349
2024-01-01 14:54:00+00:00,299.0,6.73,300.0,7.59,12.89,47.59359,-54.27349
2024-01-01 15:04:00+00:00,307.0,5.33,306.0,6.65,12.89,47.59359,-54.27349
2024-01-01 15:14:00+00:00,305.0,7.15,303.0,7.9,13.53,47.59359,-54.27349
2024-01-01 15:24:00+00:00,294.0,6.63,290.0,8.35,13.53,47.59359,-54.27349
2024-01-01 15:34:00+00:00,303.0,6.97,300.0,8.25,13.53,47.59359,-54.27349
2024-01-01 15:44:00+00:00,305.0,6.23,304.0,7.63,13.53,47.59359,-54.27349
2024-01-01 15:54:00+00:00,305.0,4.64,308.0,5.58,13.53,47.59359,-54.27349
2024-01-01 16:04:00+00:00,327.0,6.4,329.0,7.19,13.53,47.59359,-54.27349
2024-01-01 16:14:00+00:00,318.0,4.98,321.0,5.48,13.68,47.59359,-54.27349
2024-01-01 16:24:00+00:00,318.0,4.68,319.0,5.65,13.68,47.59359,-54.27349
2024-01-01 16:34:00+00:00,303.0,5.64,306.0,7.04,13.68,47.59359,-54.27349
2024-01-01 16:44:00+00:00,279.0,5.22,282.0,7.02,13.68,47.59359,-54.27349
2024-01-01 16:54:00+00:00,266.0,4.94,269.0,6.7,13.68,47.59359,-54.27349
2024-01-01 17:04:00+00:00,266.0,4.59,258.0,6.02,13.68,47.59359,-54.27349
2024-01-01 17:14:00+00:00,290.0,5.07,291.0,6.09,13.6,47.59359,-54.27349
2024-01-01 17:24:00+00:00,305.0,5.44,308.0,6.28,13.6,47.59359,-54.27349
2024-01-01 17:34:00+00:00,313.0,5.83,314.0,6.23,13.6,47.59359,-54.27349
2024-01-01 17:44:00+00:00,306.0,5.37,304.0,6.12,13.6,47.59359,-54.27349
2024-01-01 17:54:00+00:00,302.0,5.4,305.0,6.25,13.6,47.59359,-54.27349
2024-01-01 18:04:00+00:00,290.0,4.94,279.0,6.32,13.6,47.59359,-54.27349
2024-01-01 18:14:00+00:00,321.0,5.2,322.0,5.82,13.68,47.59359,-54.27349
2024-01-01 18:24:00+00:00,324.0,6.31,330.0,7.58,13.68,47.59359,-54.27349
2024-01-01 18:34:00+00:00,326.0,6.12,326.0,6.87,13.68,47.59359,-54.27349
2024-01-01 18:44:00+00:00,325.0,6.48,328.0,8.3,13.68,47.59359,-54.27349
2024-01-01 18:54:00+00:00,329.0,6.41,326.0,7.09,13.68,47.59359,-54.27349
2024-01-01 19:04:00+00:00,328.0,6.36,326.0,7.0,13.68,47.59359,-54.27349
2024-01-01 19:14:00+00:00,319.0,5.73,322.0,6.31,13.05,47.59359,-54.27349
2024-01-01 19:24:00+00:00,318.0,5.09,319.0,6.15,13.05,47.59359,-54.27349
2024-01-01 19:34:00+00:00,325.0,4.92,324.0,5.83,13.05,47.59359,-54.27349
2024-01-01 19:44:00+00:00,305.0,4.31,309.0,5.01,13.05,47.59359,-54.27349
2024-01-01 19:54:00+00:00,326.0,5.1,329.0,5.53,13.05,47.59359,-54.27349
2024-01-01 20:04:00+00:00,309.0,4.31,313.0,5.54,13.05,47.59359,-54.27349
2024-01-01 20:14:00+00:00,303.0,4.96,307.0,5.9,12.49,47.59359,-54.27349
2024-01-01 20:24:00+00:00,299.0,4.77,299.0,5.7,12.49,47.59359,-54.27349
2024-01-01 20:34:00+00:00,293.0,4.33,293.0,5.0,12.49,47.59359,-54.27349
2024-01-01 20:44:00+00:00,299.0,3.83,301.0,4.35,12.49,47.59359,-54.27349
2024-01-01 20:54:00+00:00,305.0,3.59,316.0,4.61,12.49,47.59359,-54.27349
2024-01-01 21:04:00+00:00,317.0,4.58,319.0,5.48,12.49,47.59359,-54.27349
2024-01-01 21:14:00+00:00,314.0,4.79,322.0,5.3,12.41,47.59359,-54.27349
2024-01-01 21:24:00+00:00,297.0,3.91,288.0,4.57,12.41,47.59359,-54.27349
2024-01-01 21:34:00+00:00,299.0,4.28,297.0,4.93,12.41,47.59359,-54.27349
2024-01-01 21:44:00+00:00,300.0,4.22,307.0,4.65,12.41,47.59359,-54.27349
2024-01-01 21:54:00+00:00,301.0,4.11,297.0,5.08,12.41,47.59359,-54.27349
2024-01-01 22:04:00+00:00,312.0,3.37,321.0,3.89,12.41,47.59359,-54.27349
2024-01-01 22:14:00+00:00,311.0,4.36,311.0,5.53,12.33,47.59359,-54.27349
2024-01-01 22:24:00+00:00,302.0,3.6,310.0,4.6,12.33,47.59359,-54.27349
2024-01-01 22:34:00+00:00,304.0,3.63,300.0,3.98,12.33,47.59359,-54.27349
2024-01-01 22:44:00+00:00,348.0,4.85,348.0,5.52,12.33,47.59359,-54.27349
2024-01-01 22:54:00+00:00,336.0,5.63,324.0,7.08,12.33,47.59359,-54.27349
2024-01-01 23:04:00+00:00,338.0,4.61,312.0,6.06,12.33,47.59359,-54.27349
2024-01-01 23:14:00+00:00,354.0,3.83,359.0,4.31,12.33,47.59359,-54.27349
2024-01-01 23:24:00+00:00,327.0,5.25,321.0,6.3,12.33,47.59359,-54.27349
2024-01-01 23:34:00+00:00,10.0,5.05,5.0,5.84,12.33,47.59359,-54.27349
2024-01-01 23:44:00+00:00,0.0,6.37,2.0,7.86,12.33,47.59359,-54.27349
2024-01-01 23:54:00+00:00,1.0,6.47,1.0,7.15,12.33,47.59359,-54.27349
